SL-14 DEB

Satellite information

Favourite Embed

Satellite Type and Status

DEBRISIN ORBIT

Key statistics

Satellite SL-14 DEB at a glance.

Uptime

13997

Days in orbit

Revolutions

≈ 14.0

Per day

Orbit

LEO

Low Earth Orbit

Inclination

82.5

Latest

Satellite identification and parameters

Extended collection of information and parameters for SL-14 DEB.

Object identification

Identified? True

Debris? True

Object name: SL-14 DEB

International designator: 1987-068DC

Object number (NORAD): 39976

Object ID (CCSDS): 39976

Country: COMMONWEALTH OF INDEPENDENT STATES (CIS)

Current information (Y/N): Y

RCS size: SMALL

Orbital parameters

Period: 102.597 minutes

Inclination: 82.5468 deg

SMA: 7259.659 km

Apoapsis: 888.128 km

Periapsis: 874.92 km

RAAN: 313.1902 deg

Eccentricy: 0.00090971

Argument of periapsis: 157.8619 deg

Mean anomaly: 202.2947 deg

Mean motion: 14.03551802 rev/day

Mean motion (dot): 0.00002287 rev/day2

B* drag term: 0.0014494089 1/REarth

Two-line elements (TLE)

Creation date: Dec. 11, 2025, 3:54 a.m.

Reference frame: TEME

Reference center: EARTH

Epoch: Dec. 10, 2025, 3:59 p.m. UTC

TLE line 0: 0 SL-14 DEB

TLE line 1: 1 39976U 87068DC 25344.66617176 .00002287 00000-0 14494-2 0 9994

TLE line 2: 2 39976 82.5468 313.1902 0009097 157.8619 202.2947 14.03551802105742

Live tracking on map

Real-time ground track for satellite SL-14 DEB.

In-orbit conjunctions

A list of the most updated potential collisions computed for object SL-14 DEB.

Target Orbit TCA Probability of collision Miss distance Type
SL-3 R/B LEO 2025-10-21 07:28:31 0.001054706 58.0 (m) ROCKET BODY
FENGYUN 1C DEB SSO 2024-11-14 06:52:23 0.0001520856 763.0 (m) DEBRIS

Associated space launch

Second generation soviet meteorological satellite

SL-14 DEB was lifted into orbit during the mission ‘Tsiklon-3 | Meteor-2 16’, on board a Tsiklon-3 space rocket.

The launch took place on Aug. 18, 1987, 2:27 a.m. from 32/1.

For more information about the launch, click the button.

Launch to space Tsiklon-3 | Meteor-2 16
Tsiklon-3 | Meteor-2 16

Agency: N/A

Status: Launch Successful

Launch date: Aug. 18, 1987, 2:27 a.m. UTC

Rocket: Tsiklon-3

Launch pad: 32/1

Location: Plesetsk Cosmodrome, Russian Federation

...

Latest news about this satellite

There are no fresh news available about this satellite. Check back as we update our databases every day.


Newsletter sign-up

Weekly statistics, charts and insights to help you stay on top of the space industry.